EHI
0 0 0 0 0 0 0 0 0 0 0 0 0 0 0 0 0 0 0 0 0 0 0 0 0 0 0 0 0 0 0 0 0 0 0 0 0 0
0 0 0 0 0 0 0 0 0 0 0 0 0 0 0 0 0 0 0 0 0 0 0 0 0 0 0 0 0 0 0 0 0 0 0 0 0 0
0 0 0 0 0 0 0 0 0 0 0 0 0 0 0 0 0 0 0 0 0 0 0 0 0 0 0 0 0 0 0 0 0 0 0 0 0 0
0 0 0 0 0 0 0 0 0 0 0 0 0 0 0 0 0 0 0 0 0 0 0 0 0 0 0 0 0 0 0 0 0 0 0 0 0 0
0 0 0 0 0 0 0 0 0 0 0 0 0 0 0 0 0 0 0 0 0 0 0 0 0 0 0 0 0 0 0 0 0 0 0 0 0 0
0 0 0 0 0 0 0 0 0 0 0 0 0 0 0 0 0 0 0 0 0 0 0 0 0 0 0 0 0 0 0 0 0 0 0 0 0 0
0 0 0 0 0 0 0 0 0 0 0 0 0 0 0 0 0 0 0 0 0 0 0 0 0 0 0 0 0 0 0 0 0 0 0 0 0 0
0 0 0 0 0 0 0 0 0 0 0 0 0 0 0 0 0 0 0 0 0 0 0 0 0 0 0 0 0 0 0 0 0 0 0 0 0 0
0 0 0 0 0 0 0 0 0 0 0 0 0 0 0 0 0 0 0 0 0 0 0 0 0 0 0 0 0 0 0 0 0 0 0 0 0 0
0 0 0 0 0 0 0 0 0 0 0 0 0 0 0 0 0 0 0 0 0 0 0 0 0 0 0 0 0 0 0 0 0 0 0 0 0 0
0 0 0 0 0 0 0 0 0 0 0 0 0 0 0 0 0 0 0 0 0 0 0 0 0 0 0 0 0 0 0 0 0 0 0 0 0 0
0 0 0 0 0 0 0 0 0 0 0 0 0 0 0 0 0 0 0 0 0 0 0 0 0 0 0 0 0 0 0 0 0 0 0 0 0 0
0 0 0 0 0 0 0 0 0 0 0 0 0 0 0 0 0 0 0 0 0 0 0 0 0 0 0 0 0 0 0 0 0 0 0 0 0 0
0 0 0 0 0 0 0 0 0 0 0 0 0 0 0 0 0 0 0 0 0 0 0 0 0 0 0 0 0 0 0 0 0 0 0 0 0 0
0 0 0 0 0 0 0 0 0 0 0 0 0 0 0 0 0 0 0 0 0 0 0 0 0 0 0 0 0 0 0 0 0 0 0 0 0 0
0 0 0 0 0 0 0 0 0 0 0 0 0 0 0 0 0 0 0 0 0 0 0 0 0 0 0 0 0 0 0 0 0 0 0 0 0 0
0 0 0 0 0 0 0 0 0 0 0 0 0 0 0 0 0 0 0 0 0 0 0 0 0 0 0 0 0 0 0 0 0 0 0 0 0 0
0 0 0 0 0 0 0 0 0 0 0 0 0 0 0 0 0 0 0 0 0 0 0 0 0 0 0 0 0 0 0 0 0 0 0 0 0 0
0 0 0 0 0 0 0 0 0 0 0 0 0 0 0 0 0 0 0 0 0 0 0 0 0 0 0 0 0 0 0 0 0 0 0 0 0 0
0 0 0 0 0 0 0 0 0 0 0 0 0 0 0 0 0 0 0 0 0 0 0 0 0 0 0 0 0 0 0 0 0 0 0 0 0 0
0 0 0 0 0 0 0 0 0 0 0 0 0 0 0 0 0 0 0 0 0 0 0 0 0 0 0 0 0 0 0 0 0 0 0 0 0 0
0 0 0 0 0 0 0 0 0 0 0 0 0 0 0 0 0 0 0 0 0 0 0 0 0 0 0 0 0 0 0 0 0 0 0 0 0 0
0 0 0 0 0 0 0 0 0 0 0 0 0 0 0 0 0 0 0 0 0 0 0 0 0 0 0 0 0 0 0 0 0 0 0 0 0 0
Wind_Speed
8 8 6 5 5 5 5 4 3 2 2 2 0 2 2 3 3 3 4 6 9 10 10 10 10 10 9 9 8 7 6 5 5 4 3 2 3 6
6 8 8 5 5 5 5 5 5 4 3 1 1 1 2 3 5 5 6 10 11 11 12 12 12 12 12 12 11 11 10 10 10 9 9 8 7 5
6 8 9 8 6 6 6 5 6 5 5 3 1 1 2 4 4 5 5 6 6 11 12 13 13 13 13 13 12 12 12 12 12 12 12 12 11 11
5 6 8 7 9 7 6 7 6 7 5 5 2 2 3 5 6 6 5 5 6 10 12 13 13 13 13 13 13 13 13 13 13 14 14 14 15 15
5 6 6 7 9 7 8 7 6 6 5 4 3 2 2 5 6 6 7 6 6 8 11 12 13 14 14 14 14 14 14 14 14 14 15 15 16 17
6 6 5 6 8 8 8 9 7 7 6 5 4 4 3 6 6 7 6 4 5 6 8 9 13 15 15 15 15 16 15 14 15 15 15 15 16 17
6 6 6 7 9 8 7 8 9 7 7 6 6 5 5 7 7 5 7 7 5 4 6 6 6 7 9 12 15 16 15 15 15 15 15 15 15 16
6 6 6 8 9 11 12 12 12 11 10 8 7 8 8 8 7 9 9 7 5 3 5 5 5 6 6 6 10 13 14 15 15 15 15 14 15 15
7 6 6 5 7 7 9 12 13 14 13 10 10 10 11 11 12 12 10 6 5 7 6 5 4 6 5 6 10 12 12 13 14 14 14 14 14 14
8 7 7 6 6 7 6 8 9 11 12 11 10 9 10 12 12 11 11 9 8 4 3 5 3 4 5 5 8 10 11 11 12 12 13 13 13 13
8 8 8 8 9 10 8 8 8 8 9 11 11 10 13 17 15 12 12 12 9 4 2 4 5 4 4 4 5 8 9 9 10 10 11 11 11 10
6 6 9 9 9 10 9 9 10 8 7 8 9 11 13 18 21 16 15 14 11 6 4 5 7 6 5 3 3 4 6 7 8 8 8 8 7 6
5 5 5 9 10 11 10 8 9 8 8 8 8 9 11 12 12 10 10 13 12 6 8 7 7 4 5 6 3 3 3 4 4 4 5 6 5 4
6 5 5 7 8 9 8 8 10 9 7 7 8 9 10 11 10 9 8 6 4 7 11 8 7 5 6 7 5 4 3 3 3 4 4 5 4 4
6 7 7 6 5 6 8 9 10 8 8 8 9 8 8 10 10 8 8 8 7 8 8 6 8 7 6 7 7 6 5 4 4 4 4 4 4 3
6 5 5 5 4 4 5 7 7 7 8 8 8 8 9 10 9 9 9 8 7 5 4 5 8 10 6 6 7 6 5 5 5 4 4 3 3 3
5 4 3 3 4 4 4 5 5 6 6 7 9 9 10 9 8 8 8 8 6 7 6 4 4 4 4 6 7 7 6 4 4 5 4 3 3 4
6 4 5 5 5 5 5 5 5 6 7 8 9 10 11 10 9 8 9 9 8 7 7 6 7 5 4 3 2 7 6 5 4 4 3 4 3 4
5 5 5 5 5 5 5 5 5 6 7 8 9 10 10 11 10 10 9 8 7 7 7 8 8 8 8 6 3 3 7 5 5 4 4 4 3 3
4 5 5 5 5 5 5 6 6 7 7 8 9 10 10 10 10 10 9 9 8 7 6 7 8 8 8 8 6 4 6 6 6 6 4 3 2 1
5 4 4 5 5 5 5 6 8 8 9 9 9 10 10 10 9 9 8 11 9 7 9 8 5 5 5 6 5 4 4 5 5 5 6 4 3 3
4 4 4 5 5 5 6 6 8 8 10 9 9 9 9 9 10 10 9 9 8 7 7 6 6 5 4 5 6 5 5 5 4 4 5 6 5 6
4 4 4 5 5 6 6 8 9 9 9 9 9 9 10 9 9 9 9 8 8 8 8 6 5 3 3 4 5 4 6 6 5 5 6 10 13 12
Wind_Direction
214 209 209 206 197 197 193 188 194 225 260 264 317 51 54 42 36 52 68 92 102 107 110 111 110 111 111 109 106 106 107 109 115 120 126 152 206 220
214 211 213 209 200 196 197 198 200 204 232 229 211 91 82 80 70 73 80 84 88 97 101 102 103 103 102 101 100 98 96 95 93 91 89 86 83 88
226 217 220 209 202 199 193 192 199 202 229 237 199 139 123 118 97 86 78 75 83 89 95 98 100 99 99 97 96 94 93 91 90 88 85 81 78 77
247 229 225 215 210 201 194 196 198 200 211 227 205 169 147 140 121 104 88 81 83 88 93 97 98 98 96 95 93 91 90 89 87 85 84 83 81 80
247 245 235 219 215 205 199 198 196 195 201 209 208 174 140 141 126 109 101 93 90 92 90 92 97 99 98 97 96 92 90 88 85 83 81 80 81 81
227 237 243 232 225 212 203 201 191 189 194 202 205 183 154 146 139 135 121 107 99 94 90 91 96 96 98 100 101 99 94 91 88 86 83 80 79 78
226 229 233 240 241 225 208 198 187 189 191 199 200 185 169 163 157 146 133 119 92 101 102 87 90 88 88 95 99 102 98 94 92 90 87 85 83 81
234 236 238 237 244 237 222 204 190 189 193 195 200 195 182 165 152 149 143 140 130 140 111 89 85 87 83 91 99 101 100 99 97 94 91 87 83 81
230 236 247 237 219 229 225 214 206 202 196 195 201 197 181 168 159 159 160 146 133 149 129 102 90 85 81 90 98 101 101 101 101 99 95 90 85 81
232 233 240 249 232 215 214 215 213 210 208 207 211 200 180 168 165 155 142 115 104 122 120 113 113 96 88 87 97 104 106 106 105 102 99 94 89 83
234 232 233 243 236 214 209 212 214 215 211 209 205 190 167 157 150 139 140 138 137 145 129 116 130 113 98 90 93 105 114 115 114 110 106 101 96 89
236 235 233 236 232 212 212 208 211 206 188 186 186 175 164 158 157 159 156 153 147 148 166 131 147 138 121 114 113 112 113 115 120 123 123 115 108 99
228 233 234 233 229 217 216 214 209 189 180 175 169 163 159 160 162 159 159 159 157 150 158 142 154 145 130 139 145 144 142 140 138 138 144 140 131 115
218 225 230 230 227 218 215 210 189 178 175 169 164 161 159 160 159 154 144 134 120 138 152 147 147 155 138 143 150 153 158 160 159 156 160 160 155 135
217 219 223 223 218 216 216 198 181 181 175 171 166 159 154 151 144 135 123 110 98 127 144 144 143 146 147 149 151 155 162 172 178 171 170 176 173 167
213 212 208 205 204 203 193 192 192 183 176 169 157 145 141 144 145 144 144 141 126 120 93 123 151 153 149 145 153 159 165 166 169 178 172 176 185 192
179 176 177 181 193 192 188 188 182 173 171 155 150 147 147 146 145 146 147 149 148 153 148 109 96 95 107 144 156 164 161 159 160 156 166 184 199 201
164 177 188 195 194 191 184 178 173 169 163 153 151 151 151 150 146 149 155 161 159 158 156 147 142 130 115 68 127 163 165 158 150 157 168 188 202 197
178 187 190 196 194 191 181 171 166 159 154 152 150 149 147 147 149 153 159 162 160 158 160 161 166 164 173 175 156 173 168 156 154 164 182 194 208 200
195 193 194 190 190 188 179 168 158 152 153 151 147 145 145 147 150 155 160 161 157 151 155 168 178 179 183 177 160 163 175 162 167 177 179 191 223 259
199 201 194 186 183 180 172 161 154 152 151 149 145 144 145 147 150 154 155 152 152 156 165 172 165 136 112 118 129 149 172 186 170 173 171 179 199 214
197 196 185 174 170 163 156 151 148 146 148 146 144 144 146 150 152 153 155 159 163 159 152 135 137 140 141 163 174 169 166 169 192 203 202 194 189 205
189 184 171 164 160 152 149 148 145 144 147 146 146 147 148 149 150 152 155 158 155 147 137 137 146 150 151 165 174 173 175 176 182 199 226 227 233 247